This is the latest recevied weather packets stored in our database for station/object K4OAM-13. If no packets are shown the sender has not sent any weather packets the latest 10 day(s).
| Time | Temp. | Humidity | Pressure | Rain* | Wind** | Luminosity | Snow |
|---|---|---|---|---|---|---|---|
| 1787618339 | 5.56° C | 10% | - | - | - | - | - |
| 1787617739 | 5.56° C | 10% | - | - | - | - | - |
| 1787617139 | 5.56° C | 10% | - | - | - | - | - |
| 1787616539 | 6.11° C | 99% | 1012 hPa | - | - | - | - |
| 1787615939 | 5.56° C | 10% | - | - | - | - | - |
| 1787615339 | 6.11° C | 99% | 1011.7 hPa | - | - | - | - |
| 1787614739 | 5.56° C | 10% | - | - | - | - | - |
| 1787614139 | 5.56° C | 99% | 1011.8 hPa | - | - | - | - |
| 1787613539 | 5.56° C | 98% | 1011.7 hPa | - | - | - | - |
| 1787612941 | 5.56° C | 98% | 1011.7 hPa | - | - | - | - |
| 1787612339 | 6.11° C | 98% | 1011.8 hPa | - | - | - | - |
| 1787611739 | 5.56° C | 98% | 1012.1 hPa | - | - | - | - |
| 1787611139 | 6.11° C | 96% | 1012 hPa | - | - | - | - |
| 1787610539 | 6.11° C | 96% | 1011.9 hPa | - | - | - | - |
| 1787609939 | 5.56° C | 98% | 1011.8 hPa | - | - | - | - |
| 1787609339 | 6.11° C | 94% | 1011.7 hPa | - | - | - | - |
| 1787608739 | 6.11° C | 95% | 1011.5 hPa | - | - | - | - |
| 1787608139 | 6.11° C | 92% | 1011.5 hPa | - | - | - | - |
| 1787607539 | 6.11° C | 90% | 1011.4 hPa | - | - | - | - |
| 1787606939 | 6.67° C | 89% | 1011.3 hPa | - | - | - | - |
| 1787606339 | 6.11° C | 87% | 1011.5 hPa | - | - | - | - |
| 1787605739 | 6.67° C | 85% | 1011.6 hPa | - | - | - | - |
| 1787605139 | 6.67° C | 85% | 1011.7 hPa | - | - | - | - |
| 1787604539 | 6.67° C | 82% | 1011.6 hPa | - | - | - | - |
| 1787603939 | 7.22° C | 78% | 1011.6 hPa | - | - | - | - |
* Rain since midnight (hover to see other rain measurements)
** Current wind speed in m/s (hover to see current wind gust speed)